| time (UTC) | temp F | wind direction | speed MPH | gust MPH | rain 1hr in | rain 24hr in | rain mn in | humidity % | barometer mb |
| 20260906163802 | 82 | 106 | 3.0 | 7.0 | 0.00 | 0.00 | 0.00 | 34 | 1026.1 |
| 20260906163301 | 81 | 48 | 2.0 | 9.0 | 0.00 | 0.00 | 0.00 | 34 | 1026.1 |
| 20260906162803 | 79 | 49 | 4.0 | 9.0 | 0.00 | 0.00 | 0.00 | 36 | 1026.1 |
| 20260906162301 | 78 | 56 | 3.0 | 6.0 | 0.00 | 0.00 | 0.00 | 38 | 1026.2 |
| 20260906162238 | 77 | 56 | 2.0 | 6.0 | 0.00 | 0.00 | 0.00 | 40 | 1026.2 |
| 20260906161302 | 77 | 56 | 2.0 | 7.0 | 0.00 | 0.00 | 0.00 | 39 | 1026.1 |
| 20260906160802 | 77 | 56 | 3.0 | 7.0 | 0.00 | 0.00 | 0.00 | 38 | 1026.2 |
| 20260906160302 | 78 | 66 | 3.0 | 7.0 | 0.00 | 0.00 | 0.00 | 37 | 1026.1 |
| 20260906155802 | 78 | 54 | 4.0 | 7.0 | 0.00 | 0.00 | 0.00 | 39 | 1026.1 |
| 20260906155301 | 77 | 56 | 4.0 | 7.0 | 0.00 | 0.00 | 0.00 | 40 | 1026.1 |
| 20260906154802 | 76 | 27 | 2.0 | 9.0 | 0.00 | 0.00 | 0.00 | 40 | 1026.2 |
| 20260906154521 | 76 | 35 | 4.0 | 9.0 | 0.00 | 0.00 | 0.00 | 40 | 1026.2 |
| 20260906154028 | 75 | 38 | 5.0 | 7.0 | 0.00 | 0.00 | 0.00 | 41 | 1026.1 |
| 20260906153302 | 75 | 35 | 3.0 | 7.0 | 0.00 | 0.00 | 0.00 | 41 | 1026.2 |
| 20260906153023 | 75 | 23 | 4.0 | 7.0 | 0.00 | 0.00 | 0.00 | 41 | 1026.2 |
| 20260906152527 | 75 | 28 | 2.0 | 7.0 | 0.00 | 0.00 | 0.00 | 41 | 1025.9 |
| 20260906151802 | 74 | 28 | 4.0 | 7.0 | 0.00 | 0.00 | 0.00 | 43 | 1025.9 |
| 20260906151301 | 73 | 28 | 4.0 | 6.0 | 0.00 | 0.00 | 0.00 | 43 | 1025.9 |
| 20260906150802 | 72 | 23 | 2.0 | 5.0 | 0.00 | 0.00 | 0.00 | 45 | 1025.9 |
| 20260906150530 | 71 | 24 | 2.0 | 6.0 | 0.00 | 0.00 | 0.00 | 46 | 1026.1 |
| 20260906150021 | 71 | 23 | 3.0 | 6.0 | 0.00 | 0.00 | 0.00 | 46 | 1026.2 |
| 20260906145301 | 69 | 21 | 3.0 | 7.0 | 0.00 | 0.00 | 0.00 | 48 | 1026.1 |
| 20260906144801 | 68 | 17 | 4.0 | 7.0 | 0.00 | 0.00 | 0.00 | 50 | 1026.1 |
| 20260906144301 | 66 | 7 | 3.0 | 6.0 | 0.00 | 0.00 | 0.00 | 52 | 1026.1 |
| 20260906143801 | 64 | 345 | 2.0 | 7.0 | 0.00 | 0.00 | 0.00 | 55 | 1026.1 |
| 20260906143302 | 63 | 327 | 0.0 | 7.0 | 0.00 | 0.00 | 0.00 | 56 | 1025.9 |
| 20260906142802 | 62 | 324 | 2.0 | 6.0 | 0.00 | 0.00 | 0.00 | 58 | 1025.9 |
| 20260906142301 | 61 | 324 | 0.0 | 0.0 | 0.00 | 0.00 | 0.00 | 61 | 1025.9 |
| 20260906141801 | 61 | 324 | 0.0 | 0.0 | 0.00 | 0.00 | 0.00 | 62 | 1025.9 |
| 20260906141302 | 60 | 324 | 0.0 | 0.0 | 0.00 | 0.00 | 0.00 | 62 | 1025.9 |
| 20260906140801 | 60 | 324 | 0.0 | 0.0 | 0.00 | 0.00 | 0.00 | 62 | 1026.1 |
| 20260906140301 | 60 | 324 | 0.0 | 0.0 | 0.00 | 0.00 | 0.00 | 62 | 1025.9 |
| 20260906135803 | 60 | 324 | 0.0 | 0.0 | 0.00 | 0.00 | 0.00 | 63 | 1025.7 |
| 20260906135528 | 59 | 324 | 0.0 | 0.0 | 0.00 | 0.00 | 0.00 | 63 | 1025.7 |
| 20260906134802 | 59 | 324 | 0.0 | 0.0 | 0.00 | 0.00 | 0.00 | 64 | 1025.7 |
| 20260906134301 | 58 | 324 | 0.0 | 0.0 | 0.00 | 0.00 | 0.00 | 63 | 1025.5 |
| 20260906134024 | 58 | 324 | 0.0 | 0.0 | 0.00 | 0.00 | 0.00 | 62 | 1025.6 |
| 20260906133302 | 57 | 324 | 0.0 | 0.0 | 0.00 | 0.00 | 0.00 | 63 | 1025.6 |
| 20260906132801 | 57 | 324 | 0.0 | 0.0 | 0.00 | 0.00 | 0.00 | 62 | 1025.5 |
| 20260906132301 | 57 | 324 | 0.0 | 0.0 | 0.00 | 0.00 | 0.00 | 61 | 1025.3 |
| 20260906131802 | 57 | 324 | 0.0 | 0.0 | 0.00 | 0.00 | 0.00 | 61 | 1025.3 |
| 20260906131301 | 56 | 324 | 0.0 | 0.0 | 0.00 | 0.00 | 0.00 | 61 | 1025.5 |
| 20260906130801 | 56 | 324 | 0.0 | 0.0 | 0.00 | 0.00 | 0.00 | 61 | 1025.3 |
| 20260906130302 | 56 | 324 | 0.0 | 0.0 | 0.00 | 0.00 | 0.00 | 61 | 1025.3 |
| 20260906130020 | 56 | 324 | 0.0 | 0.0 | 0.00 | 0.00 | 0.00 | 61 | 1025.1 |
| 20260906125301 | 56 | 324 | 0.0 | 0.0 | 0.00 | 0.00 | 0.00 | 61 | 1025.1 |
| 20260906124801 | 56 | 324 | 0.0 | 0.0 | 0.00 | 0.00 | 0.00 | 61 | 1025.0 |
| 20260906124302 | 56 | 324 | 0.0 | 0.0 | 0.00 | 0.00 | 0.00 | 62 | 1024.9 |
| 20260906123802 | 56 | 324 | 0.0 | 0.0 | 0.00 | 0.00 | 0.00 | 61 | 1024.9 |
| 20260906123301 | 56 | 324 | 0.0 | 0.0 | 0.00 | 0.00 | 0.00 | 61 | 1024.9 |
| 20260906122801 | 56 | 324 | 0.0 | 0.0 | 0.00 | 0.00 | 0.00 | 62 | 1024.9 |
| 20260906122305 | 56 | 324 | 0.0 | 0.0 | 0.00 | 0.00 | 0.00 | 62 | 1025.0 |
| 20260906121801 | 57 | 324 | 0.0 | 0.0 | 0.00 | 0.00 | 0.00 | 63 | 1025.1 |
| 20260906121301 | 57 | 324 | 0.0 | 0.0 | 0.00 | 0.00 | 0.00 | 63 | 1025.0 |
| 20260906120802 | 57 | 324 | 0.0 | 0.0 | 0.00 | 0.00 | 0.00 | 63 | 1024.9 |
| 20260906120301 | 57 | 324 | 0.0 | 0.0 | 0.00 | 0.00 | 0.00 | 63 | 1024.7 |
| 20260906115803 | 56 | 324 | 0.0 | 0.0 | 0.00 | 0.00 | 0.00 | 64 | 1024.7 |
| 20260906115301 | 56 | 324 | 0.0 | 0.0 | 0.00 | 0.00 | 0.00 | 64 | 1024.7 |
| 20260906114801 | 56 | 324 | 0.0 | 0.0 | 0.00 | 0.00 | 0.00 | 64 | 1024.9 |
| 20260906114301 | 56 | 324 | 0.0 | 0.0 | 0.00 | 0.00 | 0.00 | 64 | 1024.9 |
| 20260906114025 | 56 | 324 | 0.0 | 0.0 | 0.00 | 0.00 | 0.00 | 64 | 1025.0 |
| 20260906113301 | 56 | 324 | 0.0 | 0.0 | 0.00 | 0.00 | 0.00 | 64 | 1024.9 |
| 20260906112801 | 56 | 324 | 0.0 | 0.0 | 0.00 | 0.00 | 0.00 | 64 | 1024.7 |
| 20260906112301 | 56 | 324 | 0.0 | 0.0 | 0.00 | 0.00 | 0.00 | 64 | 1024.9 |
| 20260906111801 | 56 | 324 | 0.0 | 0.0 | 0.00 | 0.00 | 0.00 | 63 | 1024.7 |
| 20260906111301 | 57 | 324 | 0.0 | 0.0 | 0.00 | 0.00 | 0.00 | 63 | 1024.7 |
| 20260906111251 | 57 | 324 | 0.0 | 0.0 | 0.00 | 0.00 | 0.00 | 62 | 1024.6 |
| 20260906110301 | 57 | 324 | 0.0 | 0.0 | 0.00 | 0.00 | 0.00 | 62 | 1024.7 |
| 20260906105801 | 57 | 324 | 0.0 | 0.0 | 0.00 | 0.00 | 0.00 | 62 | 1024.7 |
| 20260906105301 | 57 | 324 | 0.0 | 0.0 | 0.00 | 0.00 | 0.00 | 62 | 1024.7 |
| 20260906104801 | 57 | 324 | 0.0 | 0.0 | 0.00 | 0.00 | 0.00 | 62 | 1024.6 |
| 20260906104302 | 57 | 324 | 0.0 | 0.0 | 0.00 | 0.00 | 0.00 | 62 | 1024.7 |
| 20260906103802 | 57 | 324 | 0.0 | 0.0 | 0.00 | 0.00 | 0.00 | 62 | 1024.7 |
| 20260906103302 | 57 | 324 | 0.0 | 0.0 | 0.00 | 0.00 | 0.00 | 62 | 1024.6 |
| 20260906102802 | 58 | 324 | 0.0 | 0.0 | 0.00 | 0.00 | 0.00 | 62 | 1024.6 |
| 20260906102301 | 58 | 324 | 0.0 | 0.0 | 0.00 | 0.00 | 0.00 | 61 | 1024.6 |
| 20260906101801 | 58 | 324 | 0.0 | 0.0 | 0.00 | 0.00 | 0.00 | 61 | 1024.5 |
| 20260906101301 | 58 | 324 | 0.0 | 0.0 | 0.00 | 0.00 | 0.00 | 61 | 1024.5 |
| 20260906100801 | 59 | 324 | 0.0 | 1.0 | 0.00 | 0.00 | 0.00 | 60 | 1024.5 |
| 20260906100302 | 59 | 324 | 0.0 | 2.0 | 0.00 | 0.00 | 0.00 | 59 | 1024.5 |
| 20260906095800 | 59 | 324 | 0.0 | 2.0 | 0.00 | 0.00 | 0.00 | 59 | 1024.5 |
| 20260906095301 | 60 | 324 | 0.0 | 3.0 | 0.00 | 0.00 | 0.00 | 59 | 1024.4 |
| 20260906095018 | 60 | 324 | 0.0 | 3.0 | 0.00 | 0.00 | 0.00 | 58 | 1024.4 |
| 20260906094301 | 60 | 324 | 2.0 | 3.0 | 0.00 | 0.00 | 0.00 | 57 | 1024.5 |
| 20260906093801 | 61 | 324 | 2.0 | 3.0 | 0.00 | 0.00 | 0.00 | 57 | 1024.2 |
| 20260906093302 | 61 | 324 | 2.0 | 3.0 | 0.00 | 0.00 | 0.00 | 57 | 1024.4 |
| 20260906092802 | 61 | 324 | 2.0 | 3.0 | 0.00 | 0.00 | 0.00 | 57 | 1024.2 |
| 20260906092521 | 61 | 324 | 2.0 | 3.0 | 0.00 | 0.00 | 0.00 | 57 | 1024.2 |
| 20260906091801 | 61 | 324 | 2.0 | 3.0 | 0.00 | 0.00 | 0.00 | 56 | 1024.2 |
| 20260906091301 | 62 | 324 | 2.0 | 3.0 | 0.00 | 0.00 | 0.00 | 56 | 1024.4 |
| 20260906090801 | 62 | 324 | 0.0 | 1.0 | 0.00 | 0.00 | 0.00 | 56 | 1024.2 |
| 20260906090521 | 62 | 324 | 0.0 | 3.0 | 0.00 | 0.00 | 0.00 | 56 | 1024.2 |
| 20260906085801 | 62 | 324 | 0.0 | 4.0 | 0.00 | 0.00 | 0.00 | 56 | 1024.2 |
| 20260906085301 | 62 | 324 | 2.0 | 5.0 | 0.00 | 0.00 | 0.00 | 56 | 1024.2 |
| 20260906084801 | 62 | 324 | 2.0 | 5.0 | 0.00 | 0.00 | 0.00 | 55 | 1024.2 |
| 20260906084300 | 62 | 324 | 2.0 | 4.0 | 0.00 | 0.00 | 0.00 | 55 | 1024.2 |
| 20260906083801 | 63 | 324 | 0.0 | 0.0 | 0.00 | 0.00 | 0.00 | 55 | 1024.2 |
| 20260906083301 | 63 | 324 | 0.0 | 0.0 | 0.00 | 0.00 | 0.00 | 55 | 1024.4 |
| 20260906082801 | 63 | 324 | 0.0 | 0.0 | 0.00 | 0.00 | 0.00 | 54 | 1024.4 |
| 20260906082746 | 63 | 324 | 0.0 | 0.0 | 0.00 | 0.00 | 0.00 | 54 | 1024.4 |
| 20260906081801 | 63 | 324 | 0.0 | 0.0 | 0.00 | 0.00 | 0.00 | 54 | 1024.4 |
| 20260906081301 | 63 | 324 | 0.0 | 0.0 | 0.00 | 0.00 | 0.00 | 54 | 1024.2 |
| 20260906081023 | 63 | 324 | 0.0 | 0.0 | 0.00 | 0.00 | 0.00 | 53 | 1024.5 |
| 20260906080520 | 63 | 324 | 0.0 | 0.0 | 0.00 | 0.00 | 0.00 | 54 | 1024.4 |
| 20260906075801 | 63 | 324 | 0.0 | 0.0 | 0.00 | 0.00 | 0.00 | 54 | 1024.5 |
| 20260906075526 | 63 | 324 | 0.0 | 0.0 | 0.00 | 0.00 | 0.00 | 54 | 1024.4 |
| 20260906074801 | 63 | 324 | 0.0 | 0.0 | 0.00 | 0.00 | 0.00 | 54 | 1024.5 |
| 20260906074301 | 63 | 324 | 0.0 | 0.0 | 0.00 | 0.00 | 0.00 | 54 | 1024.5 |
| 20260906073801 | 63 | 324 | 0.0 | 0.0 | 0.00 | 0.00 | 0.00 | 54 | 1024.5 |
| 20260906073520 | 63 | 324 | 0.0 | 0.0 | 0.00 | 0.00 | 0.00 | 54 | 1024.5 |
| 20260906072801 | 63 | 324 | 0.0 | 0.0 | 0.00 | 0.00 | 0.00 | 53 | 1024.5 |
| 20260906072301 | 64 | 324 | 0.0 | 0.0 | 0.00 | 0.00 | 0.00 | 53 | 1024.6 |
| 20260906071801 | 64 | 324 | 0.0 | 0.0 | 0.00 | 0.00 | 0.00 | 53 | 1024.6 |
| 20260906071301 | 64 | 324 | 0.0 | 0.0 | 0.00 | 0.00 | 0.00 | 53 | 1024.5 |
| 20260906070800 | 64 | 324 | 0.0 | 0.0 | 0.00 | 0.00 | 0.00 | 53 | 1024.5 |
| 20260906070301 | 64 | 324 | 0.0 | 0.0 | 0.00 | 0.00 | 0.00 | 53 | 1024.6 |
| 20260906065801 | 64 | 324 | 0.0 | 0.0 | 0.00 | 0.00 | 0.00 | 52 | 1024.6 |
| 20260906065305 | 64 | 324 | 0.0 | 0.0 | 0.00 | 0.00 | 0.00 | 52 | 1024.5 |
| 20260906064800 | 64 | 324 | 0.0 | 0.0 | 0.00 | 0.00 | 0.00 | 52 | 1024.5 |
| 20260906064301 | 64 | 324 | 0.0 | 0.0 | 0.00 | 0.00 | 0.00 | 52 | 1024.6 |
| 20260906063802 | 64 | 324 | 0.0 | 0.0 | 0.00 | 0.00 | 0.00 | 52 | 1024.6 |
| 20260906063301 | 64 | 324 | 0.0 | 0.0 | 0.00 | 0.00 | 0.00 | 52 | 1024.6 |
| 20260906062800 | 64 | 324 | 0.0 | 0.0 | 0.00 | 0.00 | 0.00 | 51 | 1024.6 |
| 20260906062305 | 65 | 324 | 0.0 | 1.0 | 0.00 | 0.00 | 0.00 | 50 | 1024.5 |
| 20260906061801 | 65 | 324 | 0.0 | 2.0 | 0.00 | 0.00 | 0.00 | 50 | 1024.5 |
| 20260906061300 | 65 | 324 | 2.0 | 3.0 | 0.00 | 0.00 | 0.00 | 50 | 1024.6 |
| 20260906060801 | 65 | 324 | 2.0 | 3.0 | 0.00 | 0.00 | 0.00 | 50 | 1024.5 |
| 20260906060437 | 65 | 324 | 2.0 | 3.0 | 0.00 | 0.00 | 0.00 | 49 | 1024.6 |
| 20260906055801 | 66 | 324 | 0.0 | 3.0 | 0.00 | 0.00 | 0.00 | 50 | 1024.5 |
| 20260906055526 | 66 | 324 | 2.0 | 3.0 | 0.00 | 0.00 | 0.00 | 49 | 1024.5 |
| 20260906054800 | 66 | 324 | 0.0 | 4.0 | 0.00 | 0.00 | 0.00 | 49 | 1024.5 |
| 20260906054743 | 66 | 324 | 2.0 | 4.0 | 0.00 | 0.00 | 0.00 | 49 | 1024.2 |
| 20260906053800 | 66 | 324 | 0.0 | 0.0 | 0.00 | 0.00 | 0.00 | 48 | 1024.2 |
| 20260906053300 | 66 | 324 | 0.0 | 0.0 | 0.00 | 0.00 | 0.00 | 48 | 1024.2 |
| 20260906052801 | 66 | 324 | 0.0 | 0.0 | 0.00 | 0.00 | 0.00 | 48 | 1024.2 |
| 20260906052301 | 66 | 324 | 0.0 | 0.0 | 0.00 | 0.00 | 0.00 | 48 | 1024.2 |
| 20260906051800 | 66 | 324 | 0.0 | 0.0 | 0.00 | 0.00 | 0.00 | 47 | 1024.2 |
| 20260906051300 | 67 | 324 | 0.0 | 0.0 | 0.00 | 0.00 | 0.00 | 47 | 1024.1 |
| 20260906050800 | 67 | 324 | 0.0 | 0.0 | 0.00 | 0.00 | 0.00 | 47 | 1024.1 |
| 20260906050300 | 67 | 324 | 0.0 | 1.0 | 0.00 | 0.00 | 0.00 | 46 | 1024.0 |
| 20260906050022 | 67 | 324 | 0.0 | 2.0 | 0.00 | 0.00 | 0.00 | 46 | 1024.1 |
| 20260906045301 | 68 | 324 | 0.0 | 2.0 | 0.00 | 0.00 | 0.00 | 45 | 1024.1 |
| 20260906044801 | 68 | 324 | 0.0 | 2.0 | 0.00 | 0.00 | 0.00 | 45 | 1024.0 |
| 20260906044300 | 69 | 324 | 0.0 | 0.0 | 0.00 | 0.00 | 0.00 | 45 | 1024.0 |
| 20260906043801 | 69 | 324 | 0.0 | 0.0 | 0.00 | 0.00 | 0.00 | 44 | 1024.0 |
| 20260906043300 | 70 | 324 | 0.0 | 0.0 | 0.00 | 0.00 | 0.00 | 43 | 1024.0 |
| 20260906042801 | 70 | 324 | 0.0 | 0.0 | 0.00 | 0.00 | 0.00 | 42 | 1024.0 |
| 20260906042301 | 71 | 324 | 0.0 | 0.0 | 0.00 | 0.00 | 0.00 | 42 | 1024.0 |
| 20260906042024 | 71 | 324 | 0.0 | 0.0 | 0.00 | 0.00 | 0.00 | 41 | 1024.0 |
| 20260906041301 | 72 | 324 | 0.0 | 2.0 | 0.00 | 0.00 | 0.00 | 40 | 1024.1 |
| 20260906041020 | 72 | 324 | 0.0 | 3.0 | 0.00 | 0.00 | 0.00 | 41 | 1024.1 |
| 20260906040300 | 72 | 324 | 0.0 | 5.0 | 0.00 | 0.00 | 0.00 | 40 | 1024.0 |
| 20260906035800 | 73 | 324 | 2.0 | 5.0 | 0.00 | 0.00 | 0.00 | 40 | 1024.0 |
| 20260906035300 | 73 | 274 | 1.0 | 4.0 | 0.00 | 0.00 | 0.00 | 39 | 1024.0 |
| 20260906034800 | 74 | 274 | 1.0 | 4.0 | 0.00 | 0.00 | 0.00 | 39 | 1023.8 |
| 20260906034301 | 74 | 288 | 3.0 | 4.0 | 0.00 | 0.00 | 0.00 | 39 | 1023.6 |
| 20260906034021 | 75 | 296 | 2.0 | 6.0 | 0.00 | 0.00 | 0.00 | 38 | 1023.6 |
| 20260906033300 | 75 | 298 | 3.0 | 10.0 | 0.00 | 0.00 | 0.00 | 38 | 1023.5 |
| 20260906032800 | 74 | 320 | 5.0 | 10.0 | 0.00 | 0.00 | 0.00 | 38 | 1023.5 |
| 20260906032300 | 74 | 300 | 4.0 | 10.0 | 0.00 | 0.00 | 0.00 | 38 | 1023.4 |
| 20260906032021 | 74 | 307 | 4.0 | 10.0 | 0.00 | 0.00 | 0.00 | 38 | 1023.2 |
| 20260906031300 | 74 | 303 | 4.0 | 7.0 | 0.00 | 0.00 | 0.00 | 38 | 1023.2 |
| 20260906031017 | 75 | 303 | 4.0 | 7.0 | 0.00 | 0.00 | 0.00 | 38 | 1023.0 |
| 20260906030301 | 75 | 305 | 5.0 | 9.0 | 0.00 | 0.00 | 0.00 | 38 | 1023.0 |
| 20260906025801 | 75 | 305 | 5.0 | 10.0 | 0.00 | 0.00 | 0.00 | 38 | 1023.0 |
| 20260906025300 | 75 | 305 | 4.0 | 10.0 | 0.00 | 0.00 | 0.00 | 39 | 1023.0 |
| 20260906024800 | 75 | 313 | 4.0 | 9.0 | 0.00 | 0.00 | 0.00 | 39 | 1022.9 |
| 20260906024300 | 75 | 321 | 4.0 | 7.0 | 0.00 | 0.00 | 0.00 | 40 | 1022.8 |
| 20260906023800 | 75 | 324 | 4.0 | 5.0 | 0.00 | 0.00 | 0.00 | 41 | 1022.8 |
| 20260906023300 | 75 | 326 | 3.0 | 6.0 | 0.00 | 0.00 | 0.00 | 42 | 1022.8 |
| 20260906022801 | 75 | 326 | 4.0 | 7.0 | 0.00 | 0.00 | 0.00 | 43 | 1022.8 |
| 20260906022301 | 75 | 343 | 4.0 | 7.0 | 0.00 | 0.00 | 0.00 | 44 | 1022.5 |
| 20260906021801 | 75 | 0 | 4.0 | 5.0 | 0.00 | 0.00 | 0.00 | 43 | 1022.7 |
| 20260906021300 | 75 | 30 | 1.0 | 4.0 | 0.00 | 0.00 | 0.00 | 43 | 1022.5 |
| 20260906020800 | 75 | 30 | 2.0 | 4.0 | 0.00 | 0.00 | 0.00 | 43 | 1022.5 |
| 20260906020300 | 75 | 30 | 1.0 | 2.0 | 0.00 | 0.00 | 0.00 | 41 | 1022.4 |
| 20260906020021 | 76 | 30 | 0.0 | 0.0 | 0.00 | 0.00 | 0.00 | 41 | 1022.4 |
| 20260906015301 | 76 | 30 | 0.0 | 0.0 | 0.00 | 0.00 | 0.00 | 40 | 1022.5 |
| 20260906014800 | 77 | 30 | 0.0 | 0.0 | 0.00 | 0.00 | 0.00 | 39 | 1022.3 |
| 20260906014300 | 77 | 30 | 0.0 | 0.0 | 0.00 | 0.00 | 0.00 | 39 | 1022.4 |
| 20260906013800 | 78 | 30 | 0.0 | 1.0 | 0.00 | 0.00 | 0.00 | 38 | 1022.4 |
| 20260906013301 | 79 | 30 | 0.0 | 1.0 | 0.00 | 0.00 | 0.00 | 37 | 1022.3 |
| 20260906012800 | 80 | 30 | 0.0 | 0.0 | 0.00 | 0.00 | 0.00 | 36 | 1022.4 |
| 20260906012301 | 81 | 30 | 0.0 | 0.0 | 0.00 | 0.00 | 0.00 | 35 | 1022.3 |
| 20260906011801 | 82 | 30 | 0.0 | 0.0 | 0.00 | 0.00 | 0.00 | 34 | 1022.3 |
| 20260906011301 | 83 | 30 | 0.0 | 0.0 | 0.00 | 0.00 | 0.00 | 34 | 1022.3 |
| 20260906011016 | 83 | 30 | 0.0 | 0.0 | 0.00 | 0.00 | 0.00 | 34 | 1022.3 |
| 20260906010301 | 83 | 30 | 0.0 | 1.0 | 0.00 | 0.00 | 0.00 | 34 | 1022.2 |
| 20260906005800 | 84 | 30 | 0.0 | 2.0 | 0.00 | 0.00 | 0.00 | 33 | 1022.3 |
| 20260906005529 | 84 | 30 | 0.0 | 2.0 | 0.00 | 0.00 | 0.00 | 33 | 1022.4 |
| 20260906004801 | 84 | 30 | 0.0 | 1.0 | 0.00 | 0.00 | 0.00 | 34 | 1022.2 |
| 20260906004300 | 84 | 30 | 0.0 | 2.0 | 0.00 | 0.00 | 0.00 | 33 | 1022.3 |
| 20260906003801 | 84 | 30 | 0.0 | 3.0 | 0.00 | 0.00 | 0.00 | 33 | 1022.3 |
| 20260906003300 | 85 | 30 | 0.0 | 4.0 | 0.00 | 0.00 | 0.00 | 32 | 1022.3 |
| 20260906002800 | 85 | 30 | 1.0 | 4.0 | 0.00 | 0.00 | 0.00 | 32 | 1022.3 |
| 20260906002301 | 86 | 31 | 2.0 | 4.0 | 0.00 | 0.00 | 0.00 | 32 | 1022.2 |
| 20260906001800 | 86 | 31 | 1.0 | 3.0 | 0.00 | 0.00 | 0.00 | 31 | 1022.3 |
| 20260906001301 | 87 | 31 | 1.0 | 6.0 | 0.00 | 0.00 | 0.00 | 31 | 1022.3 |
| 20260906000800 | 88 | 31 | 3.0 | 7.0 | 0.00 | 0.00 | 0.00 | 30 | 1022.1 |
| 20260906000301 | 88 | 25 | 5.0 | 7.0 | 0.00 | 0.00 | 0.00 | 30 | 1022.2 |
| 20260906000022 | 88 | 17 | 3.0 | 6.0 | 0.00 | 0.00 | 0.00 | 30 | 1022.2 |
| 20260905235300 | 88 | 13 | 2.0 | 5.0 | 0.00 | 0.00 | 0.00 | 30 | 1022.1 |
| 20260905235017 | 88 | 13 | 2.0 | 6.0 | 0.00 | 0.00 | 0.00 | 30 | 1022.2 |
| 20260905234300 | 88 | 13 | 3.0 | 6.0 | 0.00 | 0.00 | 0.00 | 30 | 1022.2 |
| 20260905233801 | 88 | 38 | 2.0 | 7.0 | 0.00 | 0.00 | 0.00 | 31 | 1022.1 |
| 20260905233300 | 88 | 24 | 5.0 | 7.0 | 0.00 | 0.00 | 0.00 | 31 | 1022.2 |
| 20260905232800 | 88 | 23 | 3.0 | 7.0 | 0.00 | 0.00 | 0.00 | 32 | 1022.2 |
| 20260905232301 | 87 | 23 | 3.0 | 9.0 | 0.00 | 0.00 | 0.00 | 33 | 1022.2 |
| 20260905232019 | 87 | 32 | 4.0 | 9.0 | 0.00 | 0.00 | 0.00 | 34 | 1022.2 |
| 20260905231525 | 86 | 41 | 2.0 | 9.0 | 0.00 | 0.00 | 0.00 | 34 | 1022.2 |
| 20260905230800 | 86 | 35 | 4.0 | 9.0 | 0.00 | 0.00 | 0.00 | 34 | 1022.2 |
| 20260905230300 | 85 | 347 | 3.0 | 7.0 | 0.00 | 0.00 | 0.00 | 35 | 1022.3 |
| 20260905225759 | 86 | 353 | 4.0 | 9.0 | 0.00 | 0.00 | 0.00 | 35 | 1022.4 |
| 20260905225300 | 86 | 350 | 4.0 | 14.0 | 0.00 | 0.00 | 0.00 | 34 | 1022.4 |
| 20260905224800 | 87 | 0 | 6.0 | 14.0 | 0.00 | 0.00 | 0.00 | 33 | 1022.3 |
| 20260905224522 | 87 | 3 | 6.0 | 13.0 | 0.00 | 0.00 | 0.00 | 32 | 1022.3 |
| 20260905223801 | 87 | 337 | 6.0 | 13.0 | 0.00 | 0.00 | 0.00 | 32 | 1022.4 |
| 20260905223300 | 88 | 11 | 6.0 | 12.0 | 0.00 | 0.00 | 0.00 | 32 | 1022.3 |
| 20260905222801 | 89 | 0 | 6.0 | 11.0 | 0.00 | 0.00 | 0.00 | 31 | 1022.2 |
| 20260905222301 | 90 | 7 | 5.0 | 11.0 | 0.00 | 0.00 | 0.00 | 31 | 1022.2 |
| 20260905221801 | 90 | 353 | 4.0 | 11.0 | 0.00 | 0.00 | 0.00 | 30 | 1022.3 |
| 20260905221300 | 89 | 6 | 4.0 | 9.0 | 0.00 | 0.00 | 0.00 | 31 | 1022.3 |
| 20260905220800 | 88 | 23 | 5.0 | 9.0 | 0.00 | 0.00 | 0.00 | 31 | 1022.4 |
| 20260905220259 | 88 | 347 | 5.0 | 11.0 | 0.00 | 0.00 | 0.00 | 32 | 1022.4 |
| 20260905215800 | 88 | 20 | 6.0 | 11.0 | 0.00 | 0.00 | 0.00 | 32 | 1022.7 |
| 20260905215300 | 89 | 0 | 4.0 | 12.0 | 0.00 | 0.00 | 0.00 | 33 | 1022.8 |
| 20260905214800 | 90 | 333 | 5.0 | 12.0 | 0.00 | 0.00 | 0.00 | 32 | 1022.8 |
| 20260905214300 | 90 | 333 | 5.0 | 11.0 | 0.00 | 0.00 | 0.00 | 31 | 1022.8 |
| 20260905213800 | 90 | 345 | 5.0 | 9.0 | 0.00 | 0.00 | 0.00 | 30 | 1022.9 |
| 20260905213300 | 90 | 320 | 2.0 | 5.0 | 0.00 | 0.00 | 0.00 | 27 | 1022.9 |
| 20260905212800 | 90 | 151 | 1.0 | 9.0 | 0.00 | 0.00 | 0.00 | 27 | 1022.9 |
| 20260905212300 | 91 | 151 | 1.0 | 11.0 | 0.00 | 0.00 | 0.00 | 27 | 1023.0 |
| 20260905211800 | 91 | 178 | 6.0 | 11.0 | 0.00 | 0.00 | 0.00 | 27 | 1023.0 |
| 20260905211301 | 91 | 192 | 4.0 | 10.0 | 0.00 | 0.00 | 0.00 | 28 | 1023.0 |
| 20260905210800 | 91 | 190 | 2.0 | 12.0 | 0.00 | 0.00 | 0.00 | 28 | 1023.2 |
| 20260905210300 | 91 | 128 | 7.0 | 12.0 | 0.00 | 0.00 | 0.00 | 28 | 1023.2 |
| 20260905205759 | 90 | 252 | 4.0 | 12.0 | 0.00 | 0.00 | 0.00 | 28 | 1023.3 |
| 20260905205300 | 89 | 179 | 2.0 | 12.0 | 0.00 | 0.00 | 0.00 | 27 | 1023.3 |
| 20260905204800 | 89 | 231 | 4.0 | 11.0 | 0.00 | 0.00 | 0.00 | 29 | 1023.3 |
| 20260905204259 | 89 | 190 | 3.0 | 11.0 | 0.00 | 0.00 | 0.00 | 29 | 1023.4 |
| 20260905203800 | 89 | 228 | 4.0 | 14.0 | 0.00 | 0.00 | 0.00 | 30 | 1023.5 |
| 20260905203519 | 89 | 155 | 7.0 | 14.0 | 0.00 | 0.00 | 0.00 | 30 | 1023.6 |
| 20260905202800 | 89 | 172 | 7.0 | 13.0 | 0.00 | 0.00 | 0.00 | 28 | 1023.5 |
| 20260905202300 | 89 | 250 | 6.0 | 13.0 | 0.00 | 0.00 | 0.00 | 29 | 1023.6 |
| 20260905201800 | 89 | 168 | 5.0 | 12.0 | 0.00 | 0.00 | 0.00 | 29 | 1023.5 |
| 20260905201300 | 89 | 190 | 6.0 | 11.0 | 0.00 | 0.00 | 0.00 | 31 | 1023.8 |
| 20260905200800 | 89 | 120 | 5.0 | 14.0 | 0.00 | 0.00 | 0.00 | 30 | 1023.8 |
| 20260905200259 | 89 | 158 | 9.0 | 14.0 | 0.00 | 0.00 | 0.00 | 31 | 1023.9 |
| 20260905195800 | 88 | 171 | 4.0 | 13.0 | 0.00 | 0.00 | 0.00 | 32 | 1024.0 |
| 20260905195300 | 88 | 182 | 7.0 | 13.0 | 0.00 | 0.00 | 0.00 | 33 | 1023.9 |
| 20260905194759 | 88 | 172 | 4.0 | 10.0 | 0.00 | 0.00 | 0.00 | 32 | 1024.0 |
| 20260905194300 | 89 | 124 | 4.0 | 14.0 | 0.00 | 0.00 | 0.00 | 32 | 1024.0 |
| 20260905193800 | 89 | 213 | 8.0 | 14.0 | 0.00 | 0.00 | 0.00 | 33 | 1024.1 |
| 20260905193259 | 88 | 178 | 4.0 | 13.0 | 0.00 | 0.00 | 0.00 | 34 | 1024.0 |
| 20260905192800 | 89 | 195 | 6.0 | 13.0 | 0.00 | 0.00 | 0.00 | 34 | 1024.2 |
| 20260905192259 | 88 | 223 | 5.0 | 13.0 | 0.00 | 0.00 | 0.00 | 34 | 1024.2 |
| 20260905191800 | 88 | 269 | 4.0 | 13.0 | 0.00 | 0.00 | 0.00 | 34 | 1024.2 |
| 20260905191300 | 88 | 276 | 5.0 | 12.0 | 0.00 | 0.00 | 0.00 | 34 | 1024.5 |
| 20260905190800 | 88 | 141 | 4.0 | 11.0 | 0.00 | 0.00 | 0.00 | 33 | 1024.5 |
| 20260905190300 | 87 | 323 | 1.0 | 13.0 | 0.00 | 0.00 | 0.00 | 33 | 1024.5 |
| 20260905185800 | 87 | 327 | 6.0 | 13.0 | 0.00 | 0.00 | 0.00 | 34 | 1024.7 |
| 20260905185518 | 87 | 251 | 5.0 | 10.0 | 0.00 | 0.00 | 0.00 | 34 | 1024.7 |
| 20260905184800 | 87 | 169 | 4.0 | 12.0 | 0.00 | 0.00 | 0.00 | 33 | 1024.9 |
| 20260905184259 | 87 | 140 | 7.0 | 12.0 | 0.00 | 0.00 | 0.00 | 33 | 1024.9 |
| 20260905183800 | 87 | 145 | 5.0 | 9.0 | 0.00 | 0.00 | 0.00 | 33 | 1025.0 |
| 20260905183301 | 86 | 162 | 1.0 | 9.0 | 0.00 | 0.00 | 0.00 | 34 | 1025.1 |
| 20260905183243 | 87 | 162 | 4.0 | 9.0 | 0.00 | 0.00 | 0.00 | 34 | 1025.2 |
| 20260905182300 | 86 | 227 | 2.0 | 7.0 | 0.00 | 0.00 | 0.00 | 34 | 1025.3 |
| 20260905181759 | 86 | 151 | 2.0 | 7.0 | 0.00 | 0.00 | 0.00 | 34 | 1025.2 |
| 20260905181300 | 86 | 151 | 2.0 | 9.0 | 0.00 | 0.00 | 0.00 | 35 | 1025.5 |
| 20260905181240 | 85 | 148 | 3.0 | 9.0 | 0.00 | 0.00 | 0.00 | 36 | 1025.5 |
| 20260905180300 | 85 | 127 | 1.0 | 5.0 | 0.00 | 0.00 | 0.00 | 35 | 1025.5 |
| 20260905175800 | 85 | 111 | 2.0 | 9.0 | 0.00 | 0.00 | 0.00 | 37 | 1025.6 |
| 20260905175300 | 85 | 94 | 2.0 | 9.0 | 0.00 | 0.00 | 0.00 | 38 | 1025.6 |
| 20260905174759 | 84 | 80 | 4.0 | 7.0 | 0.00 | 0.00 | 0.00 | 37 | 1025.7 |
| 20260905174300 | 84 | 185 | 2.0 | 6.0 | 0.00 | 0.00 | 0.00 | 38 | 1025.8 |
| 20260905173759 | 84 | 169 | 3.0 | 6.0 | 0.00 | 0.00 | 0.00 | 38 | 1025.8 |
| 20260905173259 | 83 | 134 | 1.0 | 9.0 | 0.00 | 0.00 | 0.00 | 39 | 1025.8 |
| 20260905173023 | 83 | 102 | 2.0 | 9.0 | 0.00 | 0.00 | 0.00 | 40 | 1025.9 |
| 20260905172300 | 83 | 144 | 5.0 | 7.0 | 0.00 | 0.00 | 0.00 | 38 | 1025.9 |
| 20260905171800 | 83 | 107 | 3.0 | 7.0 | 0.00 | 0.00 | 0.00 | 40 | 1025.9 |
| 20260905171259 | 83 | 63 | 1.0 | 7.0 | 0.00 | 0.00 | 0.00 | 40 | 1026.1 |
| 20260905170800 | 82 | 63 | 4.0 | 7.0 | 0.00 | 0.00 | 0.00 | 41 | 1025.9 |
| 20260905170300 | 82 | 56 | 3.0 | 7.0 | 0.00 | 0.00 | 0.00 | 42 | 1025.9 |
| 20260905165759 | 82 | 100 | 3.0 | 7.0 | 0.00 | 0.00 | 0.00 | 42 | 1025.9 |
| 20260905165300 | 82 | 96 | 4.0 | 7.0 | 0.00 | 0.00 | 0.00 | 42 | 1026.1 |
| 20260905164759 | 81 | 86 | 3.0 | 9.0 | 0.00 | 0.00 | 0.00 | 43 | 1026.1 |
| 20260905164259 | 81 | 110 | 2.0 | 9.0 | 0.00 | 0.00 | 0.00 | 43 | 1026.2 |